Time,TemperatureF,DewpointF,PressureIn,WindDirection,WindDirectionDegrees,WindSpeedMPH,WindSpeedGustMPH,Humidity,HourlyPrecipIn,Conditions,Clouds,dailyrainin,SoftwareType,DateUTC
2013-11-14 00:04:00,35.7,18.0,30.04,West,259,5.0,-999.0,48,-99.99,,,0.00,weatherlink.com 1.10,2013-11-14 06:04:00,
2013-11-14 00:19:00,35.3,17.0,30.03,WSW,250,6.0,-999.0,48,-99.99,,,0.00,weatherlink.com 1.10,2013-11-14 06:19:00,
2013-11-14 00:34:00,35.3,18.0,30.02,West,264,8.0,-999.0,49,-99.99,,,0.00,weatherlink.com 1.10,2013-11-14 06:34:00,
2013-11-14 00:49:00,35.1,18.0,30.02,WSW,258,5.0,-999.0,50,-99.99,,,0.00,weatherlink.com 1.10,2013-11-14 06:49:00,
2013-11-14 01:04:00,35.2,18.0,30.01,West,273,5.0,-999.0,50,-99.99,,,0.00,weatherlink.com 1.10,2013-11-14 07:04:00,
2013-11-14 01:19:00,35.2,18.0,30.01,West,265,6.0,-999.0,50,-99.99,,,0.00,weatherlink.com 1.10,2013-11-14 07:19:00,
2013-11-14 01:34:00,35.2,18.0,30.01,West,263,6.0,-999.0,50,-99.99,,,0.00,weatherlink.com 1.10,2013-11-14 07:34:00,
2013-11-14 01:49:00,35.1,18.0,30.01,West,269,8.0,-999.0,51,-99.99,,,0.00,weatherlink.com 1.10,2013-11-14 07:49:00,
2013-11-14 02:04:00,34.9,19.0,30.00,WSW,247,5.0,-999.0,52,-99.99,,,0.00,weatherlink.com 1.10,2013-11-14 08:04:00,
2013-11-14 02:19:00,34.5,19.0,30.00,WSW,257,6.0,-999.0,53,-99.99,,,0.00,weatherlink.com 1.10,2013-11-14 08:19:00,
2013-11-14 02:34:00,34.2,19.0,29.99,West,269,2.0,-999.0,54,-99.99,,,0.00,weatherlink.com 1.10,2013-11-14 08:34:00,
2013-11-14 02:49:00,34.1,19.0,29.99,WSW,251,3.0,-999.0,54,-99.99,,,0.00,weatherlink.com 1.10,2013-11-14 08:49:00,
2013-11-14 03:04:00,34.1,19.0,29.99,WSW,254,4.0,-999.0,55,-99.99,,,0.00,weatherlink.com 1.10,2013-11-14 09:04:00,
2013-11-14 03:19:00,33.9,19.0,29.98,WSW,255,6.0,-999.0,55,-99.99,,,0.00,weatherlink.com 1.10,2013-11-14 09:19:00,
2013-11-14 03:34:00,33.6,19.0,29.98,SW,228,4.0,-999.0,56,-99.99,,,0.00,weatherlink.com 1.10,2013-11-14 09:34:00,
2013-11-14 03:49:00,33.2,20.0,29.98,SW,236,3.0,-999.0,58,-99.99,,,0.00,weatherlink.com 1.10,2013-11-14 09:49:00,
2013-11-14 04:04:00,33.2,20.0,29.97,SW,229,5.0,-999.0,58,-99.99,,,0.00,weatherlink.com 1.10,2013-11-14 10:04:00,
2013-11-14 04:19:00,32.8,20.0,29.97,SW,229,5.0,-999.0,59,-99.99,,,0.00,weatherlink.com 1.10,2013-11-14 10:19:00,
2013-11-14 04:34:00,32.5,20.0,29.97,SW,234,4.0,-999.0,60,-99.99,,,0.00,weatherlink.com 1.10,2013-11-14 10:34:00,
2013-11-14 04:50:00,32.2,20.0,29.97,SW,225,6.0,-999.0,61,-99.99,,,0.00,weatherlink.com 1.10,2013-11-14 10:50:00,
2013-11-14 05:05:00,32.0,20.0,29.98,SW,236,5.0,-999.0,62,-99.99,,,0.00,weatherlink.com 1.10,2013-11-14 11:05:00,
2013-11-14 05:20:00,31.8,20.0,29.97,SW,222,3.0,-999.0,63,-99.99,,,0.00,weatherlink.com 1.10,2013-11-14 11:20:00,
2013-11-14 05:35:00,31.9,20.0,29.97,SW,234,3.0,-999.0,63,-99.99,,,0.00,weatherlink.com 1.10,2013-11-14 11:35:00,
2013-11-14 05:50:00,31.7,20.0,29.96,SW,234,5.0,-999.0,63,-99.99,,,0.00,weatherlink.com 1.10,2013-11-14 11:50:00,
2013-11-14 06:05:00,31.6,21.0,29.95,SW,232,4.0,-999.0,64,-99.99,,,0.00,weatherlink.com 1.10,2013-11-14 12:05:00,
2013-11-14 06:20:00,31.5,21.0,29.95,SSW,209,2.0,-999.0,64,-99.99,,,0.00,weatherlink.com 1.10,2013-11-14 12:20:00,
2013-11-14 06:35:00,31.5,21.0,29.95,WSW,255,3.0,-999.0,64,-99.99,,,0.00,weatherlink.com 1.10,2013-11-14 12:35:00,
2013-11-14 06:50:00,31.2,21.0,29.96,West,265,5.0,-999.0,66,-99.99,,,0.00,weatherlink.com 1.10,2013-11-14 12:50:00,
2013-11-14 07:05:00,30.8,21.0,29.96,WSW,242,5.0,-999.0,67,-99.99,,,0.00,weatherlink.com 1.10,2013-11-14 13:05:00,
2013-11-14 07:20:00,31.4,21.0,29.95,SW,232,5.0,-999.0,66,-99.99,,,0.00,weatherlink.com 1.10,2013-11-14 13:20:00,
2013-11-14 07:35:00,31.6,21.0,29.96,WSW,246,6.0,-999.0,66,-99.99,,,0.00,weatherlink.com 1.10,2013-11-14 13:35:00,
2013-11-14 07:50:00,32.0,22.0,29.95,SW,226,3.0,-999.0,66,-99.99,,,0.00,weatherlink.com 1.10,2013-11-14 13:50:00,
2013-11-14 08:05:00,32.5,22.0,29.95,SW,227,6.0,-999.0,66,-99.99,,,0.00,weatherlink.com 1.10,2013-11-14 14:05:00,
2013-11-14 08:20:00,33.5,22.0,29.95,WSW,249,7.0,-999.0,64,-99.99,,,0.00,weatherlink.com 1.10,2013-11-14 14:20:00,
2013-11-14 08:35:00,34.2,23.0,29.95,SW,227,5.0,-999.0,63,-99.99,,,0.00,weatherlink.com 1.10,2013-11-14 14:35:00,
2013-11-14 08:50:00,35.1,23.0,29.95,WSW,247,4.0,-999.0,62,-99.99,,,0.00,weatherlink.com 1.10,2013-11-14 14:50:00,
2013-11-14 09:05:00,36.3,23.0,29.94,WSW,256,9.0,-999.0,60,-99.99,,,0.00,weatherlink.com 1.10,2013-11-14 15:05:00,
2013-11-14 09:20:00,37.0,24.0,29.95,West,267,6.0,-999.0,59,-99.99,,,0.00,weatherlink.com 1.10,2013-11-14 15:20:00,
2013-11-14 09:35:00,38.1,24.0,29.95,WSW,252,3.0,-999.0,58,-99.99,,,0.00,weatherlink.com 1.10,2013-11-14 15:35:00,
2013-11-14 09:50:00,38.9,25.0,29.94,WSW,256,5.0,-999.0,57,-99.99,,,0.00,weatherlink.com 1.10,2013-11-14 15:50:00,
2013-11-14 10:05:00,39.0,25.0,29.94,West,269,6.0,-999.0,57,-99.99,,,0.00,weatherlink.com 1.10,2013-11-14 16:05:00,
2013-11-14 10:20:00,39.7,25.0,29.94,WSW,245,6.0,-999.0,56,-99.99,,,0.00,weatherlink.com 1.10,2013-11-14 16:20:00,
2013-11-14 10:35:00,40.3,25.0,29.93,WNW,286,9.0,-999.0,55,-99.99,,,0.00,weatherlink.com 1.10,2013-11-14 16:35:00,
2013-11-14 10:50:00,41.1,25.0,29.93,West,267,3.0,-999.0,54,-99.99,,,0.00,weatherlink.com 1.10,2013-11-14 16:50:00,
2013-11-14 11:05:00,42.1,26.0,29.92,West,259,9.0,-999.0,54,-99.99,,,0.00,weatherlink.com 1.10,2013-11-14 17:05:00,
2013-11-14 11:20:00,42.7,26.0,29.92,WSW,257,8.0,-999.0,53,-99.99,,,0.00,weatherlink.com 1.10,2013-11-14 17:20:00,
2013-11-14 11:35:00,43.5,27.0,29.90,SW,231,8.0,-999.0,53,-99.99,,,0.00,weatherlink.com 1.10,2013-11-14 17:35:00,
2013-11-14 11:50:00,44.5,27.0,29.90,West,274,4.0,-999.0,51,-99.99,,,0.00,weatherlink.com 1.10,2013-11-14 17:50:00,
2013-11-14 12:05:00,44.9,28.0,29.89,SW,220,6.0,-999.0,51,-99.99,,,0.00,weatherlink.com 1.10,2013-11-14 18:05:00,
2013-11-14 12:21:00,45.8,28.0,29.88,WSW,240,6.0,-999.0,51,-99.99,,,0.00,weatherlink.com 1.10,2013-11-14 18:21:00,
2013-11-14 12:36:00,45.0,28.0,29.89,WSW,244,5.0,-999.0,52,-99.99,,,0.00,weatherlink.com 1.10,2013-11-14 18:36:00,
2013-11-14 12:51:00,46.4,28.0,29.89,West,268,5.0,-999.0,50,-99.99,,,0.00,weatherlink.com 1.10,2013-11-14 18:51:00,
2013-11-14 13:06:00,47.3,29.0,29.88,WSW,257,10.0,-999.0,50,-99.99,,,0.00,weatherlink.com 1.10,2013-11-14 19:06:00,
2013-11-14 13:21:00,48.1,30.0,29.87,SW,227,4.0,-999.0,49,-99.99,,,0.00,weatherlink.com 1.10,2013-11-14 19:21:00,
2013-11-14 13:36:00,47.9,30.0,29.87,West,273,6.0,-999.0,50,-99.99,,,0.00,weatherlink.com 1.10,2013-11-14 19:36:00,
2013-11-14 13:51:00,47.8,29.0,29.87,West,272,11.0,-999.0,49,-99.99,,,0.00,weatherlink.com 1.10,2013-11-14 19:51:00,
2013-11-14 14:06:00,47.3,30.0,29.88,SSW,203,6.0,-999.0,51,-99.99,,,0.00,weatherlink.com 1.10,2013-11-14 20:06:00,
2013-11-14 14:21:00,47.2,30.0,29.88,SW,229,4.0,-999.0,52,-99.99,,,0.00,weatherlink.com 1.10,2013-11-14 20:21:00,
2013-11-14 14:36:00,47.1,30.0,29.88,West,262,7.0,-999.0,51,-99.99,,,0.00,weatherlink.com 1.10,2013-11-14 20:36:00,
2013-11-14 14:51:00,47.1,30.0,29.89,WSW,245,6.0,-999.0,52,-99.99,,,0.00,weatherlink.com 1.10,2013-11-14 20:51:00,
2013-11-14 15:06:00,47.2,30.0,29.88,West,264,8.0,-999.0,52,-99.99,,,0.00,weatherlink.com 1.10,2013-11-14 21:06:00,
2013-11-14 15:21:00,46.8,30.0,29.89,West,261,4.0,-999.0,52,-99.99,,,0.00,weatherlink.com 1.10,2013-11-14 21:21:00,
2013-11-14 15:36:00,46.0,30.0,29.88,SSW,211,4.0,-999.0,54,-99.99,,,0.00,weatherlink.com 1.10,2013-11-14 21:36:00,
2013-11-14 15:51:00,45.4,30.0,29.88,SW,225,2.0,-999.0,55,-99.99,,,0.00,weatherlink.com 1.10,2013-11-14 21:51:00,
2013-11-14 16:06:00,45.0,30.0,29.88,SW,227,2.0,-999.0,55,-99.99,,,0.00,weatherlink.com 1.10,2013-11-14 22:06:00,
2013-11-14 16:21:00,44.5,29.0,29.88,WSW,241,5.0,-999.0,56,-99.99,,,0.00,weatherlink.com 1.10,2013-11-14 22:21:00,
2013-11-14 16:36:00,44.0,29.0,29.88,SW,226,4.0,-999.0,57,-99.99,,,0.00,weatherlink.com 1.10,2013-11-14 22:36:00,
2013-11-14 16:51:00,43.6,30.0,29.88,SSW,205,2.0,-999.0,58,-99.99,,,0.00,weatherlink.com 1.10,2013-11-14 22:51:00,
2013-11-14 17:06:00,43.6,31.0,29.88,SW,228,4.0,-999.0,61,-99.99,,,0.00,weatherlink.com 1.10,2013-11-14 23:06:00,
2013-11-14 17:21:00,43.3,30.0,29.89,SSW,192,3.0,-999.0,59,-99.99,,,0.00,weatherlink.com 1.10,2013-11-14 23:21:00,
2013-11-14 17:36:00,42.9,30.0,29.89,SW,227,4.0,-999.0,61,-99.99,,,0.00,weatherlink.com 1.10,2013-11-14 23:36:00,
2013-11-14 17:51:00,42.7,30.0,29.89,WSW,240,6.0,-999.0,62,-99.99,,,0.00,weatherlink.com 1.10,2013-11-14 23:51:00,
2013-11-14 18:06:00,42.6,30.0,29.89,WSW,250,6.0,-999.0,62,-99.99,,,0.00,weatherlink.com 1.10,2013-11-15 00:06:00,
2013-11-14 18:21:00,42.7,30.0,29.88,SW,223,7.0,-999.0,61,-99.99,,,0.00,weatherlink.com 1.10,2013-11-15 00:21:00,
2013-11-14 18:36:00,42.8,30.0,29.89,WSW,244,11.0,-999.0,61,-99.99,,,0.00,weatherlink.com 1.10,2013-11-15 00:36:00,
2013-11-14 18:51:00,42.1,31.0,29.89,SW,224,9.0,-999.0,66,-99.99,,,0.00,weatherlink.com 1.10,2013-11-15 00:51:00,
2013-11-14 19:06:00,41.6,32.0,29.89,WSW,238,5.0,-999.0,69,-99.99,,,0.00,weatherlink.com 1.10,2013-11-15 01:06:00,
2013-11-14 19:21:00,41.5,32.0,29.89,West,267,7.0,-999.0,69,-99.99,,,0.00,weatherlink.com 1.10,2013-11-15 01:21:00,
2013-11-14 19:36:00,41.8,32.0,29.89,WSW,253,3.0,-999.0,67,-99.99,,,0.00,weatherlink.com 1.10,2013-11-15 01:36:00,
2013-11-14 19:51:00,42.0,32.0,29.90,WSW,254,5.0,-999.0,67,-99.99,,,0.00,weatherlink.com 1.10,2013-11-15 01:51:00,
2013-11-14 20:06:00,42.1,32.0,29.89,West,264,5.0,-999.0,67,-99.99,,,0.00,weatherlink.com 1.10,2013-11-15 02:06:00,
2013-11-14 20:21:00,42.2,32.0,29.89,West,259,5.0,-999.0,67,-99.99,,,0.00,weatherlink.com 1.10,2013-11-15 02:21:00,
2013-11-14 20:36:00,42.0,32.0,29.89,West,264,1.0,-999.0,67,-99.99,,,0.00,weatherlink.com 1.10,2013-11-15 02:36:00,
2013-11-14 20:51:00,42.1,31.0,29.89,SW,234,2.0,-999.0,66,-99.99,,,0.00,weatherlink.com 1.10,2013-11-15 02:51:00,
2013-11-14 21:06:00,41.9,32.0,29.90,SW,235,0.0,-999.0,67,-99.99,,,0.00,weatherlink.com 1.10,2013-11-15 03:06:00,
2013-11-14 21:21:00,42.0,31.0,29.89,West,260,0.0,-999.0,66,-99.99,,,0.00,weatherlink.com 1.10,2013-11-15 03:21:00,
2013-11-14 21:36:00,41.7,31.0,29.90,West,268,6.0,-999.0,66,-99.99,,,0.00,weatherlink.com 1.10,2013-11-15 03:36:00,
2013-11-14 21:51:00,41.4,31.0,29.90,WSW,257,0.0,-999.0,66,-99.99,,,0.00,weatherlink.com 1.10,2013-11-15 03:51:00,
2013-11-14 22:06:00,40.8,31.0,29.89,WSW,253,0.0,-999.0,67,-99.99,,,0.00,weatherlink.com 1.10,2013-11-15 04:06:00,
2013-11-14 22:21:00,40.7,30.0,29.89,WSW,251,1.0,-999.0,67,-99.99,,,0.00,weatherlink.com 1.10,2013-11-15 04:21:00,
2013-11-14 22:36:00,40.2,30.0,29.88,WSW,250,1.0,-999.0,68,-99.99,,,0.00,weatherlink.com 1.10,2013-11-15 04:36:00,
2013-11-14 22:51:00,39.8,30.0,29.88,SW,236,3.0,-999.0,68,-99.99,,,0.00,weatherlink.com 1.10,2013-11-15 04:51:00,
2013-11-14 23:06:00,39.8,30.0,29.88,SW,234,0.0,-999.0,67,-99.99,,,0.00,weatherlink.com 1.10,2013-11-15 05:06:00,
2013-11-14 23:21:00,39.5,30.0,29.88,SW,234,0.0,-999.0,68,-99.99,,,0.00,weatherlink.com 1.10,2013-11-15 05:21:00,
2013-11-14 23:36:00,39.4,30.0,29.88,SW,229,2.0,-999.0,68,-99.99,,,0.00,weatherlink.com 1.10,2013-11-15 05:36:00,
2013-11-14 23:51:00,38.9,29.0,29.88,SW,229,2.0,-999.0,69,-99.99,,,0.00,weatherlink.com 1.10,2013-11-15 05:51:00,